Location: Dackenheim
(49.5215°N, 8.1854°E)
Time: 07:18:42
(UTC+00:00)

TIGRISAT - Visible Passes

Search period start: 11 March 2026 00:00
Search period end: 21 March 2026 00:00
Orbit: 579 x 650 km, 97.8° (Epoch: 10 March)

Date Brightness Start Highest point End Pass type
(mag) Time Alt. Az. Time Alt. Az. Time Alt. Az.
14 Mar ? 01:11:54 10° NNE 01:11:54 10° NNE 01:11:55 10° NNE visible
15 Mar ? 01:27:22 12° NNE 01:27:22 12° NNE 01:27:50 10° N visible
16 Mar ? 01:42:50 14° N 01:42:50 14° N 01:43:36 10° N visible
17 Mar ? 01:58:17 16° N 01:58:17 16° N 01:59:17 10° N visible
18 Mar ? 02:13:44 18° N 02:13:44 18° N 02:14:52 10° N visible
19 Mar ? 00:52:09 11° NE 00:52:09 11° NE 00:52:39 10° NNE visible
19 Mar ? 02:29:11 19° NNW 02:29:11 19° NNW 02:30:24 10° NNW visible
20 Mar ? 01:07:35 14° NE 01:07:35 14° NE 01:08:50 10° NNE visible
20 Mar ? 02:44:37 19° NNW 02:44:37 19° NNW 02:45:52 10° NNW visible
